Location: *
(48.8489°N, 2.3218°E)
Time: 12:59:00
(UTC+00:00)

Aureole 3 Rocket - Pass Details

Date: 23 August 2019
Orbit: 399 x 1741 km, 82.5° (Epoch: 22 September)

Event Time Altitude Azimuth Distance (km) Brightness Sun altitude
Exits shadow 19:56:30 10° 158° (SSE) 1,724 4.9 -10.5°
Reaches altitude 10° 19:56:35 10° 157° (SSE) 1,690 4.8 -10.5°
Maximum altitude 19:59:44 30° 95° (E) 808 3.2 -11.0°
Drops below altitude 10° 20:02:31 10° 31° (NNE) 1,483 5.1 -11.4°
Sets 20:04:33 0° 20° (NNE) 2,326 6.2 -11.6°
